Powrót do katalogu

SL-6 R/B(2)

AktywnyHEO
NORAD 7629·ROCKET BODY·🇷🇺 Russia

Wystrzelony Jan 30, 1975 z Plesetsk Cosmodrome

Loading…

Następne Przeloty (najbliższe 24 godziny)

TLE

ŚwieżeSource: Space-Track

Epoka: Sep 14, 2026, 03:33 UTC

1 07629U 75007D   26257.14854374 -.00000110  00000-0  00000-0 0  9994
2 07629  68.9430 227.7384 5181807 299.3455 298.4242  2.00856556239783

Śledź SL-6 R/B(2) w czasie rzeczywistym z AllMySat

Download on the App Store